Location: Kerentrech
(47.7567°N, 3.3595°W)
Time: 02:13:03
(UTC+00:00)

Cosmos 1842 Rocket - Pass Details

Date: 17 February 2020
Orbit: 604 x 635 km, 82.5° (Epoch: 05 April)

Event Time Altitude Azimuth Distance (km) Brightness Sun altitude
Rises 05:20:02 0° 190° (S) 2,904 6.9 -20.3°
Reaches altitude 10° 05:22:15 10° 192° (SSW) 2,005 6.0 -19.9°
Maximum altitude 05:26:42 81° 278° (W) 648 3.5 -19.2°
Drops below altitude 10° 05:31:14 10° 8° (N) 2,032 6.3 -18.4°
Sets 05:33:29 0° 9° (N) 2,946 7.2 -18.0°
